Stations météo

Publicité
Bezier-Vias, France (7638): Température de l'air & dewpoint: 25.04.2017 04:00:00 - 01.05.2017 04:00:00 (CEST)Bezier-Vias, France (7638): Vitesse du vent & gusts: 25.04.2017 04:00:00 - 01.05.2017 04:00:00 (CEST)Bezier-Vias, France (7638): Direction du vent: 25.04.2017 04:00:00 - 01.05.2017 04:00:00 (CEST)Bezier-Vias, France (7638): reduced air pressure: 25.04.2017 04:00:00 - 01.05.2017 04:00:00 (CEST)Bezier-Vias, France (7638): visibility: 25.04.2017 04:00:00 - 01.05.2017 04:00:00 (CEST)Bezier-Vias, France (7638): Quantités de précipitations: 25.04.2017 04:00:00 - 01.05.2017 04:00:00 (CEST)
Date & Time tt [°C] td [°C] ff [km/h] ff [knt] fx [km/h] fx [knt] dd ppp [hPa] vv [km] rr [mm]
01.05.2017 04:00:00 7,4 5,2 9 5 14 8 W 1015,1 60 0,0
01.05.2017 03:00:00 7,5 5,3 4 2 11 6 WSW 1015,2 60 0,0
01.05.2017 02:00:00 7,5 6,0 2 1 22 12 N 1014,7 60 0,0
01.05.2017 01:00:00 7,3 5,8 11 6 25 14 W 1014,5 54 0,2
01.05.2017 00:00:00 7,7 6,3 15 8 29 15 W 1014,5 15 2,1
30.04.2017 23:00:00 8,2 5,8 14 8 35 19 WNW 1013,2 17 1,2
30.04.2017 22:00:00 9,1 7,4 11 6 37 20 NNW 1011,8 13 1,4
30.04.2017 21:00:00 10,4 7,6 27 15 54 29 WNW 1010,3 6 1,8
30.04.2017 20:00:00 13,6 8,2 37 20 72 39 W 1006,9 60 -
30.04.2017 19:00:00 15,7 12,4 35 19 68 37 SSE 1005,2 13 0,0
30.04.2017 18:00:00 16,4 12,4 37 20 68 37 SSE 1005,9 15 0,0
30.04.2017 17:00:00 16,4 12,2 32 17 71 38 SSE 1006,1 16 0,0
30.04.2017 16:00:00 16,5 11,6 39 21 75 41 SSE 1007,1 18 0,0
30.04.2017 15:00:00 16,5 11,8 36 19 74 40 SSE 1007,5 17 0,0
30.04.2017 14:00:00 16,2 11,4 37 20 68 37 SSE 1008,0 17 0,0
30.04.2017 13:00:00 16,0 11,4 35 19 68 37 SSE 1008,6 18 0,0
30.04.2017 12:00:00 16,6 11,9 35 19 58 31 SSE 1009,0 17 0,0
30.04.2017 11:00:00 15,7 11,7 29 16 55 30 SSE 1009,4 18 0,0
30.04.2017 10:00:00 14,7 11,3 27 14 54 29 SE 1009,8 19 0,0
30.04.2017 09:00:00 14,4 11,0 23 12 53 29 SE 1010,6 20 0,0
30.04.2017 08:00:00 14,4 10,2 26 14 49 26 ESE 1010,8 42 0,0
30.04.2017 07:00:00 14,3 10,1 20 11 44 24 SE 1011,0 42 0,0
30.04.2017 06:00:00 14,2 10,2 22 12 45 24 SE 1011,4 41 0,0
30.04.2017 05:00:00 14,1 10,3 20 11 38 21 ESE 1011,5 39 0,0
30.04.2017 04:00:00 13,8 9,6 19 10 39 21 ESE 1011,9 46 0,0
30.04.2017 03:00:00 13,6 8,6 21 11 50 27 ESE 1011,9 45 0,0
30.04.2017 02:00:00 13,9 9,1 20 11 36 20 ESE 1012,6 48 0,0
30.04.2017 01:00:00 13,4 9,1 17 9 28 15 E 1013,0 49 0,0
30.04.2017 00:00:00 12,0 9,0 14 7 20 11 ENE 1013,3 43 0,0
29.04.2017 23:00:00 10,7 7,8 10 5 22 12 ENE 1013,5 39 0,0
29.04.2017 22:00:00 11,9 8,2 11 6 22 12 ESE 1013,4 57 0,0
29.04.2017 21:00:00 13,4 7,4 12 6 21 12 SE 1013,5 60 0,0
29.04.2017 20:00:00 13,7 5,6 13 7 28 15 SSE 1013,6 60 0,0
29.04.2017 19:00:00 14,4 6,2 15 8 29 16 SE 1013,8 44 0,0
29.04.2017 18:00:00 14,8 5,8 20 11 33 18 SSE 1014,0 60 0,0
29.04.2017 17:00:00 14,5 3,9 20 11 37 20 SE 1014,2 52 0,0
29.04.2017 16:00:00 16,1 0,6 18 10 32 17 SE 1014,1 56 0,0
29.04.2017 15:00:00 16,7 4,0 18 10 34 19 SSE 1014,7 60 0,0
29.04.2017 14:00:00 15,2 2,4 16 9 31 17 SE 1015,2 60 0,0
29.04.2017 13:00:00 14,9 1,7 12 7 35 19 SE 1015,7 60 0,0
29.04.2017 12:00:00 15,7 0,3 9 5 26 14 E 1015,9 60 0,0
29.04.2017 11:00:00 14,7 -0,6 10 5 25 14 ENE 1016,1 60 0,0
29.04.2017 10:00:00 12,4 0,5 5 3 13 7 WNW 1016,4 10 0,0
29.04.2017 09:00:00 9,6 1,7 9 5 13 7 NW 1016,8 51 0,0
29.04.2017 08:00:00 5,8 1,9 8 5 16 8 WNW 1016,9 36 0,0
29.04.2017 07:00:00 3,2 0,3 5 3 13 7 NNW 1016,4 57 0,0
29.04.2017 06:00:00 2,7 0,1 8 4 15 8 WNW 1016,4 54 0,0
29.04.2017 05:00:00 4,6 0,4 4 2 19 10 WSW 1016,5 60 0,0
29.04.2017 04:00:00 5,2 -0,4 7 4 18 10 NNW 1016,6 60 0,0
29.04.2017 03:00:00 7,1 -0,1 11 6 19 11 NNW 1017,1 60 0,0
29.04.2017 02:00:00 6,5 0,8 11 6 16 9 NW 1017,4 60 0,0
29.04.2017 01:00:00 5,8 1,1 11 6 15 8 WNW 1017,8 60 0,0
29.04.2017 00:00:00 8,7 0,6 6 3 18 10 SSW 1017,9 60 0,0
28.04.2017 23:00:00 9,3 0,7 11 6 19 10 NNW 1017,9 60 0,0
28.04.2017 22:00:00 10,0 0,3 15 8 18 10 NW 1017,5 60 0,0
28.04.2017 21:00:00 11,8 -0,1 10 5 33 18 NNW 1016,9 60 0,0
28.04.2017 20:00:00 14,8 -0,9 19 11 43 23 NNW 1016,3 50 0,0
28.04.2017 19:00:00 16,0 -0,3 24 13 46 25 NNW 1016,2 60 0,0
28.04.2017 18:00:00 16,0 -1,6 28 15 57 31 NNW 1016,3 58 0,0
28.04.2017 17:00:00 16,1 -1,5 29 16 48 26 NNW 1016,2 60 0,0
28.04.2017 16:00:00 15,8 -1,8 28 15 46 25 N 1016,5 60 0,0
28.04.2017 15:00:00 16,3 -1,3 28 15 51 28 NNW 1016,7 51 0,0
28.04.2017 14:00:00 14,9 -2,5 29 16 54 29 NW 1016,9 54 0,0
28.04.2017 13:00:00 14,1 -3,2 29 16 63 34 NNW 1017,1 50 0,0
28.04.2017 12:00:00 13,2 -2,7 35 19 58 32 NNW 1016,9 53 0,0
28.04.2017 11:00:00 13,2 -0,8 27 15 49 26 NNW 1017,5 55 0,0
28.04.2017 10:00:00 11,4 0,2 21 11 41 22 WNW 1017,9 57 0,0
28.04.2017 09:00:00 9,5 0,6 16 9 25 14 WNW 1018,5 60 0,0
28.04.2017 08:00:00 7,2 0,4 15 8 29 16 WNW 1018,2 56 0,0
28.04.2017 07:00:00 4,8 0,2 19 11 27 15 WNW 1018,0 58 0,0
28.04.2017 06:00:00 5,3 0,3 20 11 31 17 W 1017,9 60 0,0
28.04.2017 05:00:00 5,1 -0,1 11 6 23 12 W 1017,7 60 0,0
28.04.2017 04:00:00 5,0 -0,4 13 7 27 14 WNW 1017,4 60 0,0
28.04.2017 03:00:00 4,3 0,1 9 5 20 11 W 1016,9 60 0,0
28.04.2017 02:00:00 4,6 -0,2 13 7 24 13 NW 1017,2 60 0,0
28.04.2017 01:00:00 5,2 0,0 11 6 24 13 WNW 1017,2 60 0,0
28.04.2017 00:00:00 5,7 0,8 7 4 22 12 WNW 1016,9 60 0,0
27.04.2017 23:00:00 7,4 0,6 13 7 42 23 WNW 1016,6 60 0,0
27.04.2017 22:00:00 9,1 0,0 21 11 30 16 W 1016,5 60 0,0
27.04.2017 21:00:00 9,7 0,0 21 11 38 21 WNW 1015,2 60 0,0
27.04.2017 20:00:00 10,8 -0,1 28 15 45 24 WNW 1014,4 60 0,0
27.04.2017 19:00:00 13,0 -1,0 31 17 49 27 NNW 1013,6 60 0,0
27.04.2017 18:00:00 13,4 -2,2 26 14 51 27 NNW 1013,1 50 0,0
27.04.2017 17:00:00 14,5 -3,3 28 15 51 28 NNW 1012,9 58 0,0
27.04.2017 16:00:00 13,9 -1,7 30 16 47 26 NNW 1013,1 60 0,0
27.04.2017 15:00:00 14,6 -0,7 22 12 48 26 NW 1013,2 35 0,0
27.04.2017 14:00:00 13,3 0,0 23 12 47 25 NNW 1013,8 52 0,0
27.04.2017 13:00:00 11,2 -0,3 22 12 34 18 NNW 1014,2 59 0,0
27.04.2017 12:00:00 10,2 -0,1 14 7 29 16 NNW 1014,8 57 0,0
27.04.2017 11:00:00 9,1 2,2 16 8 30 16 W 1014,8 55 0,0
27.04.2017 10:00:00 8,5 2,9 13 7 26 14 W 1014,6 56 0,0
27.04.2017 09:00:00 7,9 2,6 16 9 23 12 W 1014,5 60 0,0
27.04.2017 08:00:00 7,5 2,6 15 8 29 15 W 1014,1 60 0,0
27.04.2017 07:00:00 7,2 2,3 13 7 29 16 W 1014,0 60 0,0
27.04.2017 06:00:00 7,6 1,9 20 11 33 18 W 1013,7 60 0,0
27.04.2017 05:00:00 7,5 1,8 15 8 19 11 WNW 1013,9 60 0,0
27.04.2017 04:00:00 8,0 1,8 14 7 25 14 WNW 1013,6 60 0,0
27.04.2017 03:00:00 8,2 1,8 13 7 24 13 WNW 1014,2 60 0,0
27.04.2017 02:00:00 8,5 1,9 12 7 29 16 NNW 1013,9 60 0,0
27.04.2017 01:00:00 8,9 1,8 16 8 24 13 NW 1014,2 60 0,0
27.04.2017 00:00:00 8,7 2,0 14 7 27 14 NW 1014,0 60 0,0
26.04.2017 23:00:00 9,3 2,6 14 8 26 14 NW 1014,0 60 0,0
26.04.2017 22:00:00 9,3 2,8 15 8 32 18 WNW 1013,7 60 0,0
26.04.2017 21:00:00 9,9 3,2 21 12 38 21 NW 1012,7 60 0,0
26.04.2017 20:00:00 9,9 4,7 25 13 41 22 WNW 1012,2 58 0,0
26.04.2017 19:00:00 10,4 5,2 26 14 41 22 W 1011,5 60 0,0
26.04.2017 18:00:00 10,6 5,4 23 12 41 22 W 1011,2 58 0,0
26.04.2017 17:00:00 10,9 5,2 28 15 48 26 W 1010,9 60 0,0
26.04.2017 16:00:00 11,1 5,6 27 15 51 27 W 1010,5 60 0,0
26.04.2017 15:00:00 11,1 6,4 30 16 49 26 W 1010,2 59 0,0
26.04.2017 14:00:00 12,4 9,4 21 11 37 20 W 1009,7 34 0,0
26.04.2017 13:00:00 13,5 10,8 10 5 18 10 WSW 1009,8 19 0,0
26.04.2017 12:00:00 13,5 10,7 10 5 17 9 W 1009,6 19 0,0
26.04.2017 11:00:00 13,9 10,9 7 4 12 7 W 1008,9 29 0,0
26.04.2017 10:00:00 13,0 10,5 9 5 21 11 W 1008,5 27 0,0
26.04.2017 09:00:00 11,9 10,5 14 8 21 12 W 1008,3 16 0,0
26.04.2017 08:00:00 11,2 9,9 5 3 10 5 W 1007,7 16 0,0
26.04.2017 07:00:00 10,9 9,5 8 5 22 12 WNW 1007,4 25 0,0
26.04.2017 06:00:00 10,8 9,4 14 7 22 12 WNW 1006,8 38 0,0
26.04.2017 05:00:00 11,1 10,0 12 7 19 10 W 1006,7 37 0,0
26.04.2017 04:00:00 11,3 10,4 11 6 23 13 W 1006,9 11 1,8
26.04.2017 03:00:00 11,6 10,5 15 8 39 21 W 1007,0 19 0,4
26.04.2017 02:00:00 12,2 11,1 19 10 35 19 W 1006,8 30 0,0
26.04.2017 01:00:00 13,7 12,4 18 10 29 15 WNW 1006,8 45 1,2
26.04.2017 00:00:00 14,5 13,7 19 10 29 15 NW 1006,6 3,0 1,6
25.04.2017 23:00:00 14,8 13,8 11 6 21 11 N 1005,9 10 0,0
25.04.2017 22:00:00 14,9 13,8 14 7 30 16 NNE 1005,6 12 0,0
25.04.2017 21:00:00 14,9 13,8 18 10 34 19 E 1005,3 13 0,6
25.04.2017 20:00:00 14,9 13,9 24 13 34 19 E 1005,4 5 7,1
25.04.2017 19:00:00 15,4 13,8 13 7 36 20 ESE 1006,3 10 0,2
25.04.2017 18:00:00 15,5 13,7 21 11 36 20 ESE 1006,0 15 0,2
25.04.2017 17:00:00 15,8 13,3 25 14 36 19 E 1007,1 10 0,0
25.04.2017 16:00:00 16,6 12,7 18 10 39 21 ESE 1008,4 20 0,0
25.04.2017 15:00:00 17,4 12,5 22 12 41 22 ESE 1008,4 20 0,0
25.04.2017 14:00:00 17,9 13,2 23 12 42 23 ESE 1009,4 20 0,0
25.04.2017 13:00:00 17,4 12,5 27 14 41 22 ESE 1010,0 33 0,0
25.04.2017 12:00:00 16,8 12,5 22 12 38 20 ESE 1010,8 42 0,0
25.04.2017 11:00:00 16,4 12,6 22 12 37 20 E 1011,0 42 0,0
25.04.2017 10:00:00 15,7 12,3 23 12 38 20 E 1011,2 38 0,0
25.04.2017 09:00:00 15,1 12,2 22 12 33 18 E 1011,6 42 0,0
25.04.2017 08:00:00 14,6 12,3 19 11 30 16 E 1011,8 36 0,0
25.04.2017 07:00:00 14,3 12,2 20 11 31 17 E 1012,0 32 0,0
25.04.2017 06:00:00 14,2 12,1 19 10 30 16 ENE 1012,3 39 0,0
25.04.2017 05:00:00 14,2 12,1 18 10 28 15 E 1012,9 38 0,0
25.04.2017 04:00:00 14,4 12,3 17 9 29 16 E 1013,3 40 0,0

tt = Température de l'air
td = dewpoint
ff = Vitesse du vent
fx = gusts
dd = Direction du vent
ppp = reduced air pressure
vv = visibility
rr = Quantités de précipitations

stations d'obs. à proximité